This is the latest recevied weather packets stored in our database for station/object KF6GPE. If no packets are shown the sender has not sent any weather packets the latest 10 day(s).
| Time | Temp. | Humidity | Pressure | Rain* | Wind** | Luminosity | Snow |
|---|---|---|---|---|---|---|---|
| 1778119803 | 13.89° C | 88% | 991.2 hPa | 0 mm | - | 1001 W/m² | - |
| 1778119204 | 14.44° C | 87% | 991.3 hPa | 0 mm | - | 1001 W/m² | - |
| 1778118603 | 14.44° C | 85% | 991.2 hPa | 0 mm | - | 1001 W/m² | - |
| 1778118004 | 15° C | 84% | 991.2 hPa | 0 mm | - | 1001 W/m² | - |
| 1778117403 | 15.56° C | 83% | 991.1 hPa | 0 mm | - | 1001 W/m² | - |
| 1778116804 | 15.56° C | 82% | 991.1 hPa | 0 mm | - | 1001 W/m² | - |
| 1778116204 | 16.11° C | 80% | 991.1 hPa | 0 mm | - | 1001 W/m² | - |
| 1778115604 | 16.67° C | 79% | 991.1 hPa | 0 mm | - | 1001 W/m² | - |
| 1778115004 | 17.22° C | 77% | 991 hPa | 0 mm | - | 1002 W/m² | - |
| 1778114403 | 17.78° C | 77% | 990.9 hPa | 0 mm | - | 1002 W/m² | - |
| 1778113804 | 18.33° C | 76% | 990.8 hPa | 0 mm | - | 1002 W/m² | - |
| 1778113203 | 18.89° C | 72% | 990.8 hPa | 0 mm | - | 1002 W/m² | - |
| 1778112604 | 19.44° C | 72% | 990.8 hPa | 0 mm | - | 1002 W/m² | - |
| 1778112005 | 19.44° C | 70% | 990.7 hPa | 0 mm | - | 1002 W/m² | - |
| 1778111404 | 20° C | 70% | 990.6 hPa | 0 mm | - | 1002 W/m² | - |
| 1778110804 | 20° C | 70% | 990.5 hPa | 0 mm | - | 1002 W/m² | - |
| 1778110203 | 20° C | 69% | 990.6 hPa | 0 mm | - | 1003 W/m² | - |
| 1778109603 | 20.56° C | 68% | 990.7 hPa | 0 mm | - | 1004 W/m² | - |
| 1778109004 | 21.11° C | 67% | 990.7 hPa | 0 mm | - | 1044 W/m² | - |
| 1778108403 | 21.67° C | 66% | 990.8 hPa | 0 mm | - | 1064 W/m² | - |
| 1778107804 | 21.67° C | 66% | 990.9 hPa | 0 mm | - | 1068 W/m² | - |
| 1778107203 | 22.22° C | 64% | 990.9 hPa | 0 mm | - | 1071 W/m² | - |
| 1778106603 | 22.22° C | 63% | 990.9 hPa | 0 mm | - | 1074 W/m² | - |
| 1778106004 | 23.33° C | 61% | 990.9 hPa | 0 mm | - | 1077 W/m² | - |
| 1778105404 | 23.33° C | 60% | 991 hPa | 0 mm | - | 1079 W/m² | - |
* Rain latest hour (hover to see other rain measurements)
** Current wind speed in m/s (hover to see current wind gust speed)